User: anonymous   Login
Location: Unspecified
(0.0000°N, 0.0000°E)
Time: 15:57:28
(UTC+02:00)
Language:

SeaSat 1 - Orbit

View from above orbital plane
View from above orbital plane
View from above satellite
View from above satellite

Ground track
Ground track

The orbit data is extracted from the following two-line orbital elements,

1 10967U 78064A   17085.87332769 -.00000015 +00000-0 +35924-4 0  9998
2 10967 108.0104 127.4365 0002176 286.9168 073.1738 14.43631382034723
Epoch (UTC): 26 March 2017 20:57:35
Eccentricity: 0.0002176
inclination: 108.0104°
perigee height: 745 km
apogee height: 748 km
right ascension of ascending node: 127.4365°
argument of perigee: 286.9168°
revolutions per day: 14.43631382
mean anomaly at epoch: 73.1738°
orbit number at epoch: 3472

The dashed part of the orbit path shows where the satellite is in the earth's shadow,  

DLR